Weather History for Eagle Creek, IN

Change the Weather History Date:

Thursday, November 22, 2012

  Actual Average Record
Temperature  
Mean Temperature 47 °F 41 °F  
Max Temperature 62 °F 49 °F 69 °F (2010)
Min Temperature 32 °F 34 °F 14 °F (2000)
Degree Days  
Heating Degree Days 18 24  
Month to date heating degree days 487 424  
Since 1 July heating degree days 987 816  
Cooling Degree Days 0 0  
Month to date cooling degree days 0 0  
Year to date cooling degree days 1339 1058  
Moisture  
Dew Point 36 °F    
Average Humidity 71    
Maximum Humidity 100    
Minimum Humidity 42    
Precipitation  
Precipitation 0.02 in 0.13 in 0.79 in (2010)
Month to date precipitation 1.15 2.74  
Year to date precipitation 34.99 36.75  
Sea Level Pressure  
Sea Level Pressure 30.14 in    
Wind  
Wind Speed 6 mph (South)    
Max Wind Speed 17 mph    
Max Gust Speed 29 mph    
Visibility 4 miles    
Events Fog , Rain    
T = Trace of Precipitation, MM = Missing Value Source: NWS Daily Summary

Daily Weather History Graph

Daily Weather History Graph

Search for Another Location

Airport:

Trip Planner

Search our weather history database for the weather conditions in past years. The results will help you decide how hot, cold, wet, or windy it might be!

Date:

Astronomy

Nov. 22, 2012 Rise Set
Actual Time 7:38 AM EST 5:24 PM EST
Civil Twilight 7:08 AM EST 5:53 PM EST
Nautical Twilight 6:35 AM EST 6:26 PM EST
Astronomical Twilight 6:03 AM EST 6:59 PM EST
Moon 2:09 PM EST (11/22) 1:58 AM EST (11/22)
Length of Visible Light 10h 44m
Length of Day
9h 45m
Waxing Gibbous, 71% of the Moon is Illuminated
Nov 22
Waxing Gibbous
Nov 28
Full
Dec 6
Last Quarter
Dec 13
New
Dec 20
First Quarter

Hourly Weather History & Observations

Time (EST) Temp. Windchill Dew Point Humidity Pressure Visibility Wind Dir Wind Speed Gust Speed Precip Events Conditions
12:02 AM 39.2 °F - 37.4 °F 93% 30.19 in 2.0 mi Calm Calm - N/A   Clear
12:49 AM 37.4 °F - 37.4 °F 100% 30.19 in 4.0 mi Calm Calm - N/A   Clear
12:53 AM 39.0 °F - 37.0 °F 93% 30.20 in 3.0 mi Calm Calm - N/A   Clear
12:56 AM 37.4 °F - 37.4 °F 100% 30.19 in 1.5 mi Calm Calm - N/A   Partly Cloudy
12:58 AM 37.4 °F - 35.6 °F 93% 30.19 in 0.8 mi Calm Calm - N/A   Mist
1:05 AM 37.4 °F - 35.6 °F 93% 30.19 in 0.5 mi Calm Calm - N/A Fog Fog
1:09 AM 37.4 °F - 35.6 °F 93% 30.19 in 1.0 mi Calm Calm - N/A   Mist
1:19 AM 37.4 °F - 35.6 °F 93% 30.18 in 3.0 mi Calm Calm - N/A   Mostly Cloudy
1:27 AM 37.4 °F - 35.6 °F 93% 30.18 in 5.0 mi Calm Calm - N/A   Scattered Clouds
1:32 AM 37.4 °F - 35.6 °F 93% 30.18 in 1.2 mi Calm Calm - N/A   Scattered Clouds
1:35 AM 37.4 °F - 35.6 °F 93% 30.18 in 0.8 mi Calm Calm - N/A   Mist
1:44 AM 37.4 °F - 35.6 °F 93% 30.18 in 0.5 mi Calm Calm - N/A Fog Fog
1:48 AM 37.4 °F - 35.6 °F 93% 30.18 in 1.0 mi Calm Calm - N/A   Mist
1:51 AM 35.6 °F - 35.6 °F 100% 30.18 in 3.0 mi Calm Calm - N/A   Mostly Cloudy
1:53 AM 36.0 °F - 35.1 °F 97% 30.19 in 2.0 mi Calm Calm - N/A   Mostly Cloudy
2:00 AM 35.6 °F - 35.6 °F 100% 30.18 in 1.2 mi Calm Calm - N/A   Mostly Cloudy
2:03 AM 35.6 °F - 35.6 °F 100% 30.18 in 0.5 mi Calm Calm - N/A Fog Fog
2:18 AM 35.6 °F - 35.6 °F 100% 30.18 in 1.2 mi Calm Calm - N/A   Scattered Clouds
2:21 AM 35.6 °F - 35.6 °F 100% 30.18 in 3.0 mi Calm Calm - N/A   Scattered Clouds
2:28 AM 37.4 °F - 35.6 °F 93% 30.18 in 1.8 mi Calm Calm - N/A   Partly Cloudy
2:30 AM 37.4 °F - 35.6 °F 93% 30.18 in 0.8 mi Calm Calm - N/A   Mist
2:46 AM 35.6 °F - 35.6 °F 100% 30.18 in 0.2 mi Calm Calm - N/A Fog Fog
2:53 AM 36.0 °F - 34.0 °F 93% 30.19 in 0.2 mi Calm Calm - N/A Fog Fog
3:14 AM 35.6 °F - 33.8 °F 93% 30.18 in 0.8 mi Calm Calm - N/A   Clear
3:27 AM 35.6 °F - 33.8 °F 93% 30.18 in 0.5 mi Calm Calm - N/A Fog Fog
3:32 AM 35.6 °F - 33.8 °F 93% 30.18 in 1.0 mi Calm Calm - N/A   Clear
3:36 AM 35.6 °F - 33.8 °F 93% 30.17 in 3.0 mi Calm Calm - N/A   Clear
3:53 AM 35.1 °F - 33.1 °F 92% 30.18 in 4.0 mi Calm Calm - N/A   Clear
4:41 AM 35.6 °F - 33.8 °F 93% 30.16 in 1.5 mi Calm Calm - N/A   Clear
4:48 AM 35.6 °F - 33.8 °F 93% 30.16 in 0.5 mi Calm Calm - N/A Fog Fog
4:53 AM 35.1 °F - 34.0 °F 96% 30.17 in 0.5 mi Calm Calm - N/A Fog Fog
5:00 AM 35.6 °F - 33.8 °F 93% 30.16 in 1.0 mi Calm Calm - N/A   Clear
5:22 AM 35.6 °F - 33.8 °F 93% 30.17 in 2.5 mi Calm Calm - N/A   Clear
5:31 AM 33.8 °F - 33.8 °F 100% 30.17 in 4.0 mi Calm Calm - N/A   Clear
5:53 AM 35.1 °F - 34.0 °F 96% 30.18 in 1.2 mi Calm Calm - N/A   Clear
6:05 AM 35.6 °F - 33.8 °F 93% 30.17 in 3.0 mi Calm Calm - N/A   Clear
6:28 AM 33.8 °F - 32.0 °F 93% 30.17 in 1.5 mi Calm Calm - N/A   Clear
6:33 AM 35.6 °F - 33.8 °F 93% 30.17 in 0.5 mi Calm Calm - N/A Fog Fog
6:44 AM 35.6 °F - 33.8 °F 93% 30.17 in 1.0 mi Calm Calm - N/A   Clear
6:53 AM 34.0 °F - 33.1 °F 96% 30.19 in 1.5 mi Calm Calm - N/A   Clear
7:08 AM 33.8 °F - 32.0 °F 93% 30.17 in 3.0 mi Calm Calm - N/A   Clear
7:18 AM 33.8 °F - 33.8 °F 100% 30.16 in 2.0 mi Calm Calm - N/A   Clear
7:34 AM 35.6 °F - 33.8 °F 93% 30.16 in 0.8 mi Calm Calm - N/A   Clear
7:36 AM 35.6 °F - 33.8 °F 93% 30.16 in 0.5 mi Calm Calm - N/A Fog Fog
7:53 AM 34.0 °F - 33.1 °F 96% 30.18 in 0.2 mi Calm Calm - N/A Fog Fog
8:02 AM 33.8 °F - 33.8 °F 100% 30.16 in 0.8 mi Calm Calm - N/A   Mist
8:09 AM 35.6 °F 32.8 °F 35.6 °F 100% 30.16 in 1.2 mi SSE 3.5 mph - N/A   Partly Cloudy
8:53 AM 39.9 °F 37.8 °F 39.0 °F 97% 30.17 in 2.0 mi South 3.5 mph - N/A   Clear
9:08 AM 42.8 °F 40.1 °F 39.2 °F 87% 30.16 in 3.0 mi SSE 4.6 mph - N/A   Clear
9:53 AM 48.0 °F - 43.0 °F 83% 30.16 in 6.0 mi South 4.6 mph - N/A   Haze
10:53 AM 54.0 °F - 44.1 °F 69% 30.15 in 7.0 mi SSW 9.2 mph - N/A   Clear
11:53 AM 57.0 °F - 43.0 °F 59% 30.12 in 9.0 mi SSW 13.8 mph 19.6 mph N/A   Clear
12:53 PM 60.1 °F - 43.0 °F 53% 30.08 in 10.0 mi SSW 9.2 mph - N/A   Clear
1:53 PM 61.0 °F - 42.1 °F 50% 30.06 in 10.0 mi SSW 9.2 mph - N/A   Clear
2:53 PM 62.1 °F - 42.1 °F 48% 30.03 in 10.0 mi South 10.4 mph 18.4 mph N/A   Clear
3:53 PM 62.1 °F - 39.9 °F 44% 30.02 in 10.0 mi South 10.4 mph - N/A   Overcast
4:53 PM 60.1 °F - 37.9 °F 44% 30.01 in 10.0 mi South 5.8 mph - N/A   Clear
5:53 PM 57.0 °F - 37.0 °F 47% 30.01 in 10.0 mi South 4.6 mph - N/A   Clear
6:53 PM 57.0 °F - 37.0 °F 47% 30.00 in 10.0 mi South 6.9 mph - N/A   Clear
7:53 PM 55.9 °F - 37.9 °F 51% 30.00 in 10.0 mi South 6.9 mph - N/A   Clear
8:53 PM 55.9 °F - 39.0 °F 53% 29.97 in 10.0 mi South 8.1 mph - N/A   Clear
9:53 PM 55.9 °F - 39.9 °F 55% 29.98 in 10.0 mi SSW 12.7 mph - N/A   Mostly Cloudy
10:53 PM 57.0 °F - 39.9 °F 53% 29.96 in 10.0 mi SW 10.4 mph 17.3 mph N/A   Overcast
11:53 PM 53.1 °F - 46.0 °F 77% 29.96 in 10.0 mi SW 13.8 mph 28.8 mph 0.01 in Rain Light Rain